BID: ORB10077.N DECODE 2-LINE ELSETS WITH THE FOLLOWING KEY: 1 AAAAAU 00 0 0 BBBBB.BBBBBBBB .CCCCCCCC 00000-0 00000-0 0 DDDZ 2 AAAAA EEE.EEEE FFF.FFFF GGGGGGG HHH.HHHH III.IIII JJ.JJJJJJJJKKKKKZ KEY: A-CATALOGNUM B-EPOCHTIME C-DECAY D-ELSETNUM E-INCLINATION F-RAAN G-ECCENTRICITY H-ARGPERIGEE I-MNANOM J-MNMOTION K-ORBITNUM Z-CHECKSUM TO ALL RADIO AMATEURS BT AO-07 1 07530U 74089B 10076.66491894 -.00000027 00000-0 10000-3 0 7299 2 07530 101.4083 096.0672 0012119 093.2192 267.0266 12.53577903616985 FO-29 1 24278U 96046B 10076.55189153 -.00000044 00000-0 -78741-5 0 2680 2 24278 098.5190 278.3256 0351159 001.6991 358.5255 13.52947904670718 SO-33 1 25509U 98061B 10076.76732150 .00000238 00000-0 33184-4 0 6713 2 25509 031.4343 305.4984 0354278 210.5710 147.3818 14.28298520594976 RS-22 1 27939U 03042A 10077.66436658 .00000178 00000-0 43114-4 0 352 2 27939 097.9059 306.9250 0013396 350.8311 009.2645 14.63393073345714 VO-52 1 28650U 05017B 10077.23804430 .00000012 00000-0 80248-5 0 4583 2 28650 097.7028 134.1758 0026401 212.1128 147.8504 14.81700628263226 SO-67 1 35870U 09049F 10077.76161758 .00001060 00000-0 48821-4 0 5508 2 35870 097.3428 129.1473 0009562 022.9286 086.5891 15.22397023 27703 HO-68 1 36122U 09072B 10077.64644466 -.00000045 00000-0 00000 0 0 1594 2 36122 100.4797 138.9588 0007341 180.8113 179.2993 13.16280139 12303 UO-11 1 14781U 84021B 10077.14387661 -.00000113 00000-0 -78545-5 0 1990 2 14781 098.0681 128.5591 0008933 165.9441 194.2284 14.79777886398340 AO-16 1 20439U 90005D 10077.41544522 .00000013 00000-0 20205-4 0 8484 2 20439 098.3218 038.9428 0011973 077.3008 282.9529 14.31852189 52399 LO-19 1 20442U 90005G 10077.70726457 .00000145 00000-0 69297-4 0 7590 2 20442 098.2831 045.3923 0012886 071.3959 288.8615 14.32085470 52605 AO-27 1 22825U 93061C 10077.77720919 -.00000029 00000-0 54510-5 0 4824 2 22825 098.4768 028.1082 0008526 169.3009 190.8355 14.29289518859139 IO-26 1 22826U 93061D 10077.36886729 .00000021 00000-0 24985-4 0 2182 2 22826 098.4696 028.3471 0009142 166.2136 193.9303 14.29544629859185 GO-32 1 25397U 98043D 10077.05526959 .00000033 00000-0 32670-4 0 1389 2 25397 098.3150 089.5170 0001887 138.2958 221.8350 14.23173848607087 NO-44 1 26931U 01043C 10077.32503170 -.00000193 00000-0 -42972-4 0 4128 2 26931 067.0498 078.0731 0006487 263.8495 096.1834 14.29586365441767 SO-50 1 27607U 02058C 10077.55373150 .00000083 00000-0 34862-4 0 1283 2 27607 064.5570 271.8013 0036566 119.3909 241.0832 14.71512015389042 CO-55 1 27844U 03031E 10077.03250260 .00000096 00000-0 64827-4 0 8035 2 27844 098.7130 087.3105 0010884 074.1610 286.0773 14.20691690348140 CO-57 1 27848U 03031J 10077.68277515 .00000080 00000-0 57612-4 0 7555 2 27848 098.7168 087.0301 0010775 076.5317 283.7053 14.20486481348199 AO-51 1 28375U 04025K 10077.02750028 .00000036 00000-0 23407-4 0 6294 2 28375 098.0588 075.7304 0085026 014.4166 345.9423 14.40674042300380 GENESAT1 1 29655U 06058C 10076.92198845 .00066323 00000-0 38309-3 0 9790 2 29655 040.0170 257.5008 0006577 003.7677 356.3187 15.77598863185504 CP3 1 31129U 07012N 10077.33717327 .00000232 00000-0 63745-4 0 5312 2 31129 097.9526 121.7271 0103570 155.0820 205.5423 14.52224246154670 CO-65 1 32785U 08021C 10076.92615667 -.00000008 00000-0 56812-5 0 6300 2 32785 097.9052 143.0779 0014095 218.5838 141.4359 14.81603390101974 KKS-1 1 33493U 09002B 10077.71760893 .00000759 00000-0 10500-3 0 3072 2 33493 098.0735 196.5009 0021293 074.9887 285.3688 14.80898514 62091 SOHLA-1 1 33496U 09002E 10077.66693381 -.00000041 00000-0 12841-5 0 531 2 33496 098.0484 187.9602 0007492 125.3377 234.8535 14.69476202 61584 NOAA-10 1 16969U 86073A 10077.23778060 .00000077 00000-0 49409-4 0 9942 2 16969 098.6663 107.0222 0013162 115.4197 244.8350 14.27410004222607 NOAA-11 1 19531U 88089A 10077.30111634 .00000180 00000-0 11576-3 0 102 2 19531 098.7684 167.8741 0012278 049.1697 311.0561 14.14918491108281 NOAA-12 1 21263U 91032A 10077.32235288 .00000061 00000-0 44388-4 0 4956 2 21263 098.7694 090.4805 0013337 071.7885 288.4745 14.25622273979454 MET-3/5 1 21655U 91056A 10077.62527986 .00000051 00000-0 10000-3 0 7639 2 21655 082.5617 012.6145 0012569 211.4713 148.5689 13.17023280893751 MET-2/21 1 22782U 93055A 10077.68253293 -.00000003 00000-0 -15577-4 0 7246 2 22782 082.5507 324.2564 0021057 298.9282 060.9767 13.83643485835568 OKEAN-4 1 23317U 94066A 10077.76175713 .00000238 00000-0 26391-4 0 1814 2 23317 082.5363 078.2575 0022000 175.2871 184.8582 14.82781671833054 NOAA-14 1 23455U 94089A 10077.34211845 -.00000042 00000-0 13781-5 0 9871 2 23455 098.8814 158.7050 0009977 129.8194 230.3877 14.13780469784665 NOAA-15 1 25338U 98030A 10077.42447924 .00000191 00000-0 10037-3 0 3070 2 25338 098.6123 066.0053 0010415 344.5874 015.5000 14.24813327615826 RESURS 1 25394U 98043A 10077.57830392 .00000010 00000-0 21919-4 0 4564 2 25394 098.3123 100.5639 0002246 109.4218 250.7207 14.24195653607459 FENGYUN1 1 25730U 99025A 10077.78582497 .00000476 00000-0 30331-3 0 9986 2 25730 098.7798 045.1123 0023716 159.8507 200.3599 14.08190786558962 OKEAN-0 1 25860U 99039A 10077.42935425 .00000084 00000-0 20195-4 0 9410 2 25860 097.8224 053.2597 0001626 058.4957 301.6414 14.73622315573535 NOAA-16 1 26536U 00055A 10077.41878707 -.00000143 00000-0 -52253-4 0 7842 2 26536 099.1760 092.7284 0009929 229.2025 130.8286 14.12549750489017 NOAA-17 1 27453U 02032A 10077.36440584 .00000028 00000-0 30161-4 0 7888 2 27453 098.4424 131.4199 0012473 046.4123 313.8064 14.24139955401776 NOAA-18 1 28654U 05018A 10077.41489666 .00000117 00000-0 89205-4 0 2730 2 28654 098.9411 023.9790 0013714 312.3518 047.6488 14.11336629248634 NOAA-19 1 33591U 09005A 10077.45410391 .00000300 00000-0 19088-3 0 4725 2 33591 098.7815 021.5399 0013979 182.8986 177.2084 14.11036086 57114 HUBBLE 1 20580U 90037B 10077.15135467 .00000613 00000-0 34193-4 0 5373 2 20580 028.4686 114.1449 0003251 309.5084 050.5268 15.00922806891068 ISS 1 25544U 98067A 10078.03626584 .00024786 00000-0 17248-3 0 7990 2 25544 051.6474 333.4280 0007746 067.0877 023.4595 15.74194950649272 CO-58 1 28895U 05043F 10077.71493048 .00000387 00000-0 90164-4 0 5397 2 28895 098.0270 325.1269 0017444 205.6793 154.3577 14.59861481233782 FALCON 1 30776U 07006E 10076.84810829 .00000949 00000-0 71215-4 0 7877 2 30776 035.4334 238.7830 0000457 017.1842 342.8896 15.03526439166301 MAST 1 31126U 07012K 10077.63320789 .00000067 00000-0 25410-4 0 8219 2 31126 097.9486 124.2809 0094871 147.0287 213.6879 14.53563547154900 CAPE1 1 31130U 07012P 10077.52802630 .00000229 00000-0 63285-4 0 8405 2 31130 097.9498 121.7722 0103422 154.7823 205.8495 14.52147812154503 COMPASS 1 32787U 08021E 10077.34806976 .00000698 00000-0 94987-4 0 6223 2 32787 097.9032 143.3223 0014956 218.8608 141.1594 14.81793051102046 AAUSAT2 1 32788U 08021F 10076.68453991 .00000727 00000-0 98357-4 0 6166 2 32788 097.9045 142.7751 0014334 222.3876 137.6222 14.81929452101950 DO-64 1 32789U 08021G 10076.70075396 .00001083 00000-0 14296-3 0 6322 2 32789 097.9092 143.1673 0015086 219.1357 140.8728 14.82017414101958 CO-66 1 32791U 08021J 10076.68182577 .00000511 00000-0 71738-4 0 6131 2 32791 097.9060 142.6885 0015176 219.0635 140.9473 14.81592083101905 RS-30 1 32953U 08025A 10077.57864575 .00000010 00000-0 00000 0 0 5513 2 32953 082.4967 086.0250 0017664 303.3710 056.5685 12.43004331 82480 TACSAT-3 1 35001U 09028A 10077.33931542 .00008895 00000-0 21590-3 0 2402 2 35001 040.4555 039.4594 0022174 040.5552 319.6911 15.40758229 46615 PHARMSAT 1 35002U 09028B 10077.26168695 .00007870 00000-0 18758-3 0 2286 2 35002 040.4697 038.2820 0024127 045.4710 314.8070 15.41374031 46611 HAWKSAT1 1 35003U 09028C 10077.26273449 .00015767 00000-0 34489-3 0 2420 2 35003 040.4603 035.3545 0023214 052.6333 307.6592 15.43458738 46650 CP6 1 35004U 09028D 10077.88156240 .00018080 00000-0 38839-3 0 2354 2 35004 040.4578 031.2524 0021708 059.3713 300.9257 15.43960321 46746 AEROCUB3 1 35005U 09028E 10077.29659161 .00036358 00000-0 73448-3 0 2500 2 35005 040.4727 035.0613 0019050 055.6861 304.5768 15.45542573 46658 DRAGNSAT 1 35690U 09038B 10076.22573662 .04717833 00000-0 27945-3 0 3177 2 35690 051.6207 315.5093 0003725 309.8010 050.2776 16.41595152 36566 POLLUX 1 35693U 09038E 10077.83488935 .00535022 16817-3 42843-3 0 3316 2 35693 051.6292 310.6138 0005521 229.4850 130.5752 16.13753378 36745 CASTOR 1 35694U 09038F 10077.86013633 .00051761 12122-4 17777-3 0 2304 2 35694 051.6378 319.3317 0004219 185.5808 174.5158 15.90196496 36636 METEOR-M 1 35865U 09049A 10077.28443062 .00000176 00000-0 10000-3 0 1522 2 35865 098.7699 131.6884 0001550 269.9410 090.1565 14.21828992 25807 RS-38 1 35869U 09049E 10077.82847054 .00000176 00000-0 10000-3 0 1558 2 35869 098.7689 132.2534 0003830 267.5762 092.4938 14.21977312 25884 /EX
12 years, 2 months
1
0
0
0
orb10077.amsat
by Ray Hoad
SB KEPS @ AMSAT $ORB10077.O Orbital Elements 10077.OSCAR HR AMSAT ORBITAL ELEMENTS FOR OSCAR SATELLITES FROM WA5QGD FORT WORTH,TX March 18, 2010 Send Subscribe/unsubscribe to KEPS at
http://www.amsat.org/mailman/listinfo/keps
